Regional Weather Roundup
Issued by NWS

Home | Current Version | Previous Version | Text Only | Print | Product List | Glossary On
Versions: 1 2 3 4 5 6 7 8 9 10 11 12 13 14 15 16 17 18 19 20 21 22 23 24 25 26
000
ASUS44 KJAN 231910
RWRMS

MISSISSIPPI HOURLY WEATHER ROUNDUP
NATIONAL WEATHER SERVICE JACKSON MS
100 PM CST THU FEB 23 2017

NOTE: "FAIR: INDICATES FEW OR NO CLOUDS BELOW 12,000 FEET WITH NO
SIGNIFICANT WEATHER AND/OR OBSTRUCTIONS TO VISIBILITY.

MSZ001>002-007>008-010>013-018>021-025>028-034>036-232000-
NORTHWEST MISSISSIPPI

CITY           SKY/WX    TMP DP  RH WIND       PRES   REMARKS
BATESVILLE     FAIR      74  56  52 S8G17     29.76F
CLEVELAND      FAIR      73  59  61 MISG      29.74F
GREENWOOD      SUNNY     77  53  43 S8        29.75F
GREENVILLE     SUNNY     74  56  53 S14       29.74F
OLIVE BRANCH   MOSUNNY  N/A N/A N/A S13       29.74F
OXFORD         PTSUNNY   72  55  56 S10G17    29.78F
TUNICA         CLEAR     73  55  53 S12G17    29.74F
WINONA         FAIR      74  59  58 SE7       29.76F
$$

MSZ003>006-009-014>017-022>024-029>033-037>039-232000-
NORTHEAST MISSISSIPPI

CITY           SKY/WX    TMP DP  RH WIND       PRES   REMARKS
COLUMBUS AFB   CLOUDY    64  61  90 S6        29.81F
CORINTH        MOCLDY    70  59  68 SW13      29.78F
GOLDN TRIANGLE CLOUDY    63  55  77 SE7       29.79F FOG
TUPELO         CLOUDY    66  59  78 SE10      29.80F
$$

MSZ040-058-232000-
CENTRAL MISSISSIPPI

CITY           SKY/WX    TMP DP  RH WIND       PRES   REMARKS
JACKSON INTL   MOSUNNY   78  58  49 S9        29.77F
JACKSON HAWKNS MOSUNNY   77  57  50 S13G18    29.78F
MADISON          N/A    N/A N/A N/A S8        29.77F
MERIDIAN KEY   CLOUDY    75  61  61 VRB5      29.80F
MERIDIAN NAS   MOSUNNY   70  58  65 E10       29.82F
VICKSBURG VKS  CLEAR     79  54  41 SE7G14    29.74F
$$

MSZ059>079-232000-
SOUTH MISSISSIPPI

CITY           SKY/WX    TMP DP  RH WIND       PRES   REMARKS
BROOKHAVEN     FAIR     N/A N/A N/A S10       29.80F
HATTIESBURG    SUNNY     77  58  51 VRB7      29.79F
LAUREL         FAIR      76  58  52 SE6       29.80F
MCCOMB         SUNNY     76  56  49 VRB7      29.79F
NATCHEZ        SUNNY     77  55  47 SW9G16    29.77F
PINE BELT      SUNNY     75  59  57 S5        29.81F
$$

MSZ080>082-232000-
COASTAL MISSISSIPPI

CITY           SKY/WX    TMP DP  RH WIND       PRES   REMARKS
BILOXI         SUNNY     70  63  78 S9        29.81F
PASCAGOULA     SUNNY     75  59  57 S9        29.80F
GULFPORT       MOSUNNY   71  63  75 S9        29.81F
$$

LAZ007>009-015>016-023>026-232000-
NORTHEAST LOUISIANA

CITY           SKY/WX    TMP DP  RH WIND       PRES   REMARKS
BASTROP        FAIR      76  56  48 S13G18    29.75F
TALLULAH/VBURG SUNNY     77  55  46 S8        29.76
VIDALIA        FAIR      74  59  59 SW12      29.77F
$$




USA.gov is the U.S. government's official web portal to all federal, state and local government web resources and services.